Roanoke, VA

11:34 PM EDT on March 29, 2017 (GMT -0400)
Roanoke Regional-Woodrum

Weather History for KROA - March, 2014

Change the Weather History Date:

Sunday, March 9, 2014

  Actual Average Record
Temperature  
Mean Temperature 50 °F 45 °F  
Max Temperature 59 °F 56 °F 80 °F (1974)
Min Temperature 41 °F 35 °F 12 °F (1996)
Degree Days  
Heating Degree Days 15 20  
Month to date heating degree days 229 190  
Since 1 July heating degree days 3631 3395  
Cooling Degree Days 0 0  
Month to date cooling degree days 0 0  
Year to date cooling degree days 0 0  
Growing Degree Days 2 (Base 50)    
Moisture  
Dew Point 28 °F    
Average Humidity 41    
Maximum Humidity 56    
Minimum Humidity 25    
Precipitation  
Precipitation 0.00 in 0.10 in 1.33 in (1976)
Month to date precipitation 1.25 0.92  
Year to date precipitation 7.53 6.73  
Snow  
Snow 0.00 in - - ()
Month to date snowfall 1.8  
Since 1 July snowfall 24.2  
Snow Depth 0.00 in    
Sea Level Pressure  
Sea Level Pressure 30.04 in    
Wind  
Wind Speed 13 mph (WNW)    
Max Wind Speed 24 mph    
Max Gust Speed 32 mph    
Visibility 10 miles    
Events      
T = Trace of Precipitation, MM = Missing Value Source: NWS Daily Summary

Daily Weather History Graph

Daily Weather History Graph

Search for Another Location

Airport or City:

Trip Planner

Search our weather history database for the weather conditions in past years. The results will help you decide how hot, cold, wet, or windy it might be!

Date:

Astronomy

Mar. 09, 2014 Rise Set
Actual Time 7:39 AM EDT 7:21 PM EDT
Civil Twilight 7:13 AM EDT 7:47 PM EDT
Nautical Twilight 6:43 AM EDT 8:17 PM EDT
Astronomical Twilight 6:13 AM EDT 8:48 PM EDT
Moon 1:18 PM EDT (3/9) 3:58 AM EDT (3/9)
Length of Visible Light 12h 33m
Length of Day
11h 41m
First Quarter, 61% of the Moon is Illuminated
Mar 9
First Quarter
Mar 16
Full
Mar 23
Last Quarter
Mar 30
New
Apr 7
First Quarter

Hourly Weather History & Observations

Time (EDT) Temp. Windchill Dew Point Humidity Pressure Visibility Wind Dir Wind Speed Gust Speed Precip Events Conditions
12:54 AM 51.1 °F - 28.0 °F 41% 29.99 in 10.0 mi NW 10.4 mph 16.1 mph N/A   Clear
1:54 AM 54.0 °F - 30.9 °F 41% 29.98 in 10.0 mi WNW 11.5 mph - N/A   Mostly Cloudy
3:54 AM 53.1 °F - 33.1 °F 47% 29.96 in 10.0 mi WNW 12.7 mph 21.9 mph N/A   Mostly Cloudy
4:54 AM 51.1 °F - 35.1 °F 54% 29.96 in 10.0 mi WNW 15.0 mph 23.0 mph N/A   Mostly Cloudy
5:54 AM 51.1 °F - 35.1 °F 54% 29.99 in 10.0 mi WNW 11.5 mph - N/A   Mostly Cloudy
6:54 AM 50.0 °F - 34.0 °F 54% 30.01 in 10.0 mi WNW 15.0 mph 20.7 mph N/A   Mostly Cloudy
7:54 AM 48.9 °F - 33.1 °F 54% 30.06 in 10.0 mi NW 12.7 mph - N/A   Mostly Cloudy
8:54 AM 48.0 °F - 33.1 °F 56% 30.07 in 10.0 mi NW 25.3 mph 31.1 mph N/A   Mostly Cloudy
9:54 AM 48.9 °F - 33.1 °F 54% 30.10 in 8.0 mi NW 15.0 mph 20.7 mph N/A   Mostly Cloudy
10:54 AM 50.0 °F - 30.9 °F 48% 30.11 in 10.0 mi NW 15.0 mph 24.2 mph N/A   Mostly Cloudy
11:54 AM 51.1 °F - 28.9 °F 43% 30.12 in 10.0 mi WNW 13.8 mph 26.5 mph N/A   Mostly Cloudy
12:54 PM 51.1 °F - 28.0 °F 41% 30.13 in 10.0 mi NW 18.4 mph - N/A   Mostly Cloudy
1:54 PM 53.1 °F - 26.1 °F 35% 30.10 in 10.0 mi NNW 17.3 mph 23.0 mph N/A   Scattered Clouds
2:54 PM 55.0 °F - 26.1 °F 33% 30.07 in 10.0 mi NNW 16.1 mph 21.9 mph N/A   Clear
3:54 PM 57.0 °F - 25.0 °F 29% 30.06 in 10.0 mi NNW 16.1 mph - N/A   Clear
4:54 PM 57.9 °F - 25.0 °F 28% 30.04 in 10.0 mi WNW 5.8 mph - N/A   Clear
5:54 PM 57.0 °F - 23.0 °F 27% 30.03 in 10.0 mi WSW 11.5 mph - N/A   Clear
6:54 PM 55.0 °F - 21.0 °F 27% 30.03 in 10.0 mi WNW 10.4 mph - N/A   Clear
7:54 PM 52.0 °F - 21.9 °F 31% 30.03 in 10.0 mi NW 10.4 mph - N/A   Clear
8:54 PM 52.0 °F - 19.9 °F 28% 30.04 in 10.0 mi West 9.2 mph - N/A   Clear
9:54 PM 52.0 °F - 21.9 °F 31% 30.06 in 10.0 mi WNW 11.5 mph - N/A   Clear
10:54 PM 46.9 °F - 23.0 °F 39% 30.04 in 10.0 mi Variable 5.8 mph - N/A   Clear
11:54 PM 45.0 °F 41.8 °F 23.0 °F 42% 30.04 in 10.0 mi NW 5.8 mph - N/A   Clear
12:54 AM 44.1 °F 39.5 °F 24.1 °F 45% 30.02 in 10.0 mi West 8.1 mph - N/A   Clear